www.pogodaiklimat.ru

Погода и климат >> Архив погоды >> Россия >> Эвенкия >> Тура


ПОГОДА в Туре

АРХИВ ПОГОДЫ в Туре

Время (UTC), дата Ветер
(напр.,м/с)
 
Видим.   Явления Облачность Т
(С)
Тd
(С)
f
(%)
Тe
(С)
Тes
(С)
Комфортность P
(гПа)
Po
(гПа)
Тmin
(С)
Tmax
(С)
R
(мм)
R24
(мм)
S
(см)
15 17.06 С 3 20 км 9/9 600 м
[Cb cap]
+9.2 +2.9 65 +7 +7 1019.1 996.0
18 17.06 С 3 н/о 3/0
[Ci fib]
+3.7 +1.1 83 -0 -0 1020.1 996.5
21 17.06 С 2 20 км 4/0
[Ci fib]
+1.4 +0.3 92 -2 -2 1021.7 997.8
00 18.06 штиль 0 20 км 3/0
[Ci fib]
+5.8 +2.4 79 +5 +10 1021.8 998.3 +0.7
03 18.06 С 1 20 км 8/0
[Ci fib]
+12.4 -0.3 42 +13 +23 1019.7 996.8
06 18.06 В 2 20 км 6/0
[Ci fib]
+17.8 -3.4 23 +18 +29 1017.1 994.6
09 18.06 З 2 20 км 8/0
[Ac trans Ci fib]
+20.8 -1.6 22 +21 +27 комфорт 1014.5 992.3
12 18.06 Ю 2 20 км 10/6 1000 м
[Sc Ci sp]
+20.0 -1.3 24 +21 +21 комфорт 1013.3 991.1 +21.6
15 18.06 штиль 0 20 км 10/10 1000 м
[Sc]
+18.1 -1.9 26 +18 +18 1012.7 990.4
18 18.06 ЮВ 1 н/о 10/10 600 м
[Cb cap]
+14.8 +4.2 49 +15 +15 1012.5 990.0
21 18.06 В 2 20 км 9/9 600 м
[Cb cap]
+14.7 +4.4 50 +15 +15 1011.9 989.4
00 19.06 ЮЗ 2 20 км 8/6 1000 м
[Cu Sc Ac trans]
+16.1 +6.0 51 +16 +17 1011.1 988.6 +13.1
03 19.06 штиль 0 20 км 10/10 600 м
[Cb cap]
+18.2 +9.3 56 +18 +18 1010.9 988.7
06 19.06 В 2 20 км 8/3 1000 м
[Cu hum Ac trans Ci fib]
+22.8 +9.1 42 +24 +30 комфорт 1009.5 987.6
09 19.06 Ю 5 20 км 8/0
[Ac trans Ci fib]
+28.6 +7.8 27 +28 +31 жарко 1007.1 985.7
12 19.06 Ю 4 20 км 4/0
[Ac cast Ci fib]
+29.7 +5.9 22 +28 +29 жарко 1005.7 984.4 +29.9
15 19.06 ЮВ 2 20 км ясно +26.8 +5.2 25 +26 +26 жарко 1005.2 983.7
18 19.06 штиль 0 н/о ясно +20.2 +6.8 42 +21 +21 комфорт 1006.1 984.1
21 19.06 ЮЗ 1 20 км ясно +17.0 +8.0 55 +18 +18 1006.8 984.5
00 20.06 ЮЗ 1 20 км 3/0
[Ci fib]
+20.2 +9.6 50 +23 +27 комфорт 1006.3 984.3 +15.0
03 20.06 З 2 20 км ясно +27.0 +9.8 34 +27 +38 жарко 1004.9 983.4
06 20.06 ЮЗ 3 20 км 6/6 1000 м
[Cu med, cong]
+32.4 +10.2 26 +32 +36 жарко 1003.2 982.2
09 20.06 ЮЗ 3
{10}
20 км 3/3 1000 м
[Cu med, cong]
+32.8 +8.4 22 +31 +36 жарко 1001.9 980.9
12 20.06 ЮЗ 2 20 км 3/3 1000 м
[Cu hum]
+31.8 +8.9 24 +31 +32 жарко 1001.8 980.7 +33.1
15 20.06 С 1 20 км 8/3 1000 м
[Cu hum Ac trans Ci fib]
+23.3 +10.7 45 +25 +25 комфорт 1002.3 980.7
18 20.06 З 1 н/о 10/3 1000 м
[Sc Ac trans Ci fib]
+21.3 +13.1 59 +24 +24 комфорт 1004.7 982.8
21 20.06 СЗ 1 20 км 3/0
[Ci sp]
+16.5 +12.7 78 +18 +18 1005.1 982.8
00 21.06 Ю 1 20 км 1/1 1000 м
[Cu med, cong]
+19.5 +14.2 71 +22 +27 комфорт 1004.1 982.2 +16.0
03 21.06 Ю 1 20 км 6/0
[Ac trans Ci fib]
+28.2 +14.9 44 +31 +40 душно 1002.0 980.7
06 21.06 Ю 3 10 км дым 6/4 1000 м
[Cu Sc Ci fib]
+32.2 +7.6 22 +31 +37 жарко 1000.1 979.0
09 21.06 Ю 4
{11}
10 км дым 3/3 1000 м
[Cu hum]
+33.4 +6.5 19 +31 +35 жарко 998.4 977.5
12 21.06 Ю 4 10 км дым 4/4 1000 м
[Cu Sc]
+32.5 +4.6 17 +30 +31 жарко 997.8 976.9 +33.8
15 21.06 ЮВ 1 10 км дым 8/3 1000 м
[Sc Ac trans Ci fib]
+27.4 +8.6 31 +27 +27 жарко 997.5 976.3
18 21.06 С 1 н/о дым 8/0
[Ac trans Ci fib]
+17.4 +11.8 70 +18 +18 998.3 976.3
21 21.06 З 1 10 км дым 8/6 1000 м
[Sc Ci fib]
+15.7 +11.0 74 +16 +17 998.7 976.6
00 22.06 В 1 10 км дым 9/8 1000 м
[Sc Ci fib]
+18.0 +12.8 72 +19 +20 998.1 976.2 +15.4
03 22.06 ЮВ 1 10 км дым 10/10 600 м
[Cb cap]
+23.2 +16.3 65 +28 +28 душно 996.5 975.0
06 22.06 З 1 10 км дым 10/10 600 м
[Cb cap]
+22.1 +15.4 66 +26 +26 душно 996.6 975.0
09 22.06 ЮЗ 4
{10}
10 км дым 8/6 600 м
[Cb cap Ac trans Ci fib]
+27.0 +14.4 46 +29 +31 жарко 995.9 974.7
12 22.06 З 5
{12}
10 км дым {ливн. осадки} 8/8 600 м
[Cb cap]
+23.4 +14.1 56 +27 +27 душно 998.3 976.8 +27.5 0.0
15 22.06 З 3
{13}
20 км 6/6 600 м
[Cb cap]
+18.8 +10.7 59 +20 +20 1001.8 979.8
18 22.06 З 2 н/о 3/3 1000 м
[Cu hum]
+15.5 +9.5 67 +15 +15 1003.7 981.5
21 22.06 СЗ 1 20 км 3/3 1000 м
[Cu hum]
+12.8 +10.3 85 +13 +13 1005.2 982.6
00 23.06 З 2 20 км 3/3 1000 м
[Cu hum]
+17.2 +12.5 74 +18 +20 1005.5 983.3 +12.7
03 23.06 ЮЗ 1 20 км 8/8 600 м
[Cb cap Ci fib]
+22.8 +12.5 52 +26 +28 жарко 1004.8 983.1
06 23.06 З 1 20 км 9/8 600 м
[Cb cap Ci fib]
+24.0 +11.9 47 +26 +28 жарко 1004.7 983.0
09 23.06 ЮЗ 2 20 км слабый ливневой дождь 10/8 600 м
[Cb cap Ci fib]
+25.2 +11.3 42 +27 +28 жарко 1004.6 983.0
12 23.06 С 2 20 км {ливн. осадки} 10/6 600 м
[Cb cap Ac trans Ci fib]
+24.6 +9.9 39 +25 +26 комфорт 1005.0 983.3 +26.6 0.0
15 23.06 штиль 0 20 км 8/4 1000 м
[Sc Ac trans Ci fib]
+21.5 +12.7 57 +24 +24 комфорт 1006.3 984.4
18 23.06 штиль 0 н/о 6/3 1000 м
[Sc Ac trans Ci fib]
+15.6 +11.3 76 +15 +15 1007.4 985.1
21 23.06 С 1 20 км 6/4 1000 м
[Sc Ci fib]
+12.0 +9.6 85 +12 +12 1009.2 986.5
00 24.06 С 2 20 км ясно +18.3 +12.0 67 +19 +23 1009.1 987.0 +11.4
03 24.06 С 4 20 км 1/1 1000 м
[Cu hum]
+21.1 +12.7 59 +23 +30 комфорт 1009.5 987.5
06 24.06 СВ 3 20 км 3/3 1000 м
[Cu hum]
+25.0 +11.2 42 +26 +34 жарко 1008.3 986.7
09 24.06 С 3 20 км 4/3 1000 м
[Cu med, cong Ci fib]
+26.2 +10.6 38 +27 +31 жарко 1007.4 985.9
12 24.06 В 3 20 км 8/8 600 м
[Cb cap]
+26.2 +11.0 39 +27 +28 жарко 1007.2 985.7 +27.3

 

Местоположение метеостанции Тура (Эвенкия, Россия): широта 64.33 долгота 100.40 высота над уровнем моря 624 м.

В архиве по умолчанию представлена погода в Туре за последнюю неделю. Архивные данные за месяц целиком и за предыдущие месяцы, начиная с января 2011 года, Вы можете получить, выбрав интересующий диапазон дат из раскрывающегося списка и нажав кнопку "Ввод!".

Внимание! Время в таблицах - всемирное. Для получения местного времени необходимо прибавить поправку, которая в Туре равна 7 ч.

Смотрите также архив погоды в соседних городах и на ближайших метеорологических станциях:

Погода в Тембенчи (Эвенкия, Россия) (99 км)
Погода в Кербо (Эвенкия, Россия) (182 км)
Погода в Кислокане (Эвенкия, Россия) (190 км)
Погода в Стрелке-Чуне (Эвенкия, Россия) (311 км)
Погода в Тутончанах (Эвенкия, Россия) (320 км)
Погода в Муторае (Эвенкия, Россия) (334 км)
Погода в Байките (Эвенкия, Россия) (359 км)
Погода в Агате (Эвенкия, Россия) (426 км)
Погода в Усть-Камо (Эвенкия, Россия) (428 км)
Погода в Ванаваре (Эвенкия, Россия) (456 км)

Пояснения к столбцам:

Ветер - указаны скорость ветра в м/с - средняя за 10 мин, порывы в срок и между сроками (в фигурных скобках) и направление, откуда дует ветер: С - северный, СВ - северо-восточный, В - восточный, ЮВ - юго-восточный, Ю - южный, ЮЗ - юго-западный, З - западный, СЗ - северо-западный.
Видимость - горизонтальная дальность видимости в метрах или километрах. При видимости от 1 до 10 км при отсутствии осадков обычно наблюдается дымка, при ухудшении видимости до 1 км и менее - туман. В сухую погоду видимость может ухудшаться дымом, пылью или мглою.
Явления - указаны атмосферные явления, наблюдавшиеся в срок или в последний час перед сроком; фигурными скобками обозначены явления, наблюдавшиеся между сроками (за 1-3 часа до срока); квадратными скобками обозначены град или гололедные отложения с указанием их диаметра в мм.
Облачность - указаны через наклонную черту общая и нижняя облачность в баллах и высота нижней границы облаков в метрах; квадратными скобками обозначены формы облаков: Ci - перистые, Cs - перисто-слоистые, Cc - перисто-кучевые, Ac - высококучевые, As - высокослоистые, Sc - слоисто-кучевые, Ns - слоисто-дождевые, Cu - кучевые, Cb - кучево-дождевые. Подробнее классификацию облаков см. в Атласе облаков (PDF).
T - Температура воздуха - температура, измеренная на высоте 2 м над землей.
Td - Температура точки росы - температура, при понижении до которой содержащийся в воздухе водяной пар достигнет насыщения.
f - Относительная влажность воздуха - влажноcть воздуха, измеренная на высоте 2 м над землей.
Te - Эффективная температура - температура, которую ощущает одетый по сезону человек в тени. Характеристика душности погоды. При расчете учитывается влияние влажности воздуха и скорости ветра на теплоощущения человека.
Tes - Эффективная температура на солнце - температура, которую ощущает человек, с поправкой на солнечный нагрев. Характеристика знойности погоды. Зависит от высоты солнца над горизонтом, облачности и скорости ветра. Ночью, в пасмурную погоду, а также при ветре 12 м/с и более поправка равна нулю.
P - Атмосферное давление - приведенное к уровню моря атмосферное давление.
Po - Атмосферное давление - измеренное на уровне метеостанции атмосферное давление.
Tmin - Минимальная температура - минимум температуры воздуха на высоте 2 м над землей.
Tmax - Максимальная температура - максимум температуры воздуха на высоте 2 м над землей.
R - Количество осадков - Количество выпавших осадков за период времени, мм. При наведении курсора мыши на число - период времени, за который выпало указанное количество осадков.
R24 - Количество осадков - Количество выпавших осадков за 24 часа, мм.
S - Снежный покров - Высота снежного покрова, см. При наведении курсора мыши на число - состояние снежного покрова и степень покрытия местности в баллах.